Weather History for K40J - June, 2013

Change the Weather History Date:

Friday, June 21, 2013

  Actual Average (KCTY) Record (KCTY)
Temperature  
Mean Temperature 78 °F 80 °F  
Max Temperature 88 °F 91 °F - ()
Min Temperature 69 °F 70 °F - ()
Degree Days  
Heating Degree Days 0 0  
Month to date heating degree days 0  
Since 1 June heating degree days 0  
Since 1 July heating degree days 1306  
Cooling Degree Days 13 15  
Month to date cooling degree days 306  
Year to date cooling degree days 785  
Since 1 June cooling degree days 306  
Growing Degree Days 28 (Base 50)    
Moisture  
Dew Point 70 °F    
Average Humidity 83    
Maximum Humidity 100    
Minimum Humidity 55    
Precipitation  
Precipitation 0.02 in 0.21 in - ()
Month to date precipitation 3.39  
Year to date precipitation 20.56  
Sea Level Pressure  
Sea Level Pressure 30.11 in    
Wind  
Wind Speed 3 mph (ENE)    
Max Wind Speed 9 mph    
Max Gust Speed 20 mph    
Visibility 8 miles    
Events Rain , Thunderstorm    
T = Trace of Precipitation, MM = Missing Value Source: NWS Daily Summary

Daily Weather History Graph

Daily Weather History Graph

Search for Another Location

Airport or City:

Trip Planner

Search our weather history database for the weather conditions in past years. The results will help you decide how hot, cold, wet, or windy it might be!

Date:

Astronomy

Jun. 21, 2013 Rise Set
Actual Time 6:33 AM EDT 8:38 PM EDT
Civil Twilight 6:06 AM EDT 9:06 PM EDT
Nautical Twilight 5:32 AM EDT 9:39 PM EDT
Astronomical Twilight 4:56 AM EDT 10:15 PM EDT
Moon 6:52 PM EDT (6/21) 4:42 AM EDT (6/21)
Length of Visible Light 15h 00m
Length of Day
14h 05m
Waxing Gibbous, 95% of the Moon is Illuminated
Jun 21
Waxing Gibbous
Jun 23
Full
Jun 30
Last Quarter
Jul 8
New
Jul 15
First Quarter

Hourly Weather History & Observations

Time (EDT) Temp. Heat Index Dew Point Humidity Pressure Visibility Wind Dir Wind Speed Gust Speed Precip Events Conditions
12:15 AM 71.6 °F - 69.8 °F 94% 30.11 in 10.0 mi Calm Calm - N/A   Clear
12:35 AM 71.6 °F - 69.8 °F 94% 30.10 in 10.0 mi Calm Calm - N/A   Clear
12:53 AM 73.0 °F - 69.1 °F 87% 30.09 in - Calm Calm - N/A   Unknown
12:55 AM 71.6 °F - 69.8 °F 94% 30.10 in 10.0 mi Calm Calm - N/A   Clear
1:15 AM 71.6 °F - 69.8 °F 94% 30.10 in 10.0 mi NE 3.5 mph - N/A   Scattered Clouds
1:35 AM 71.6 °F - 69.8 °F 94% 30.10 in 10.0 mi NE 3.5 mph - N/A   Scattered Clouds
1:53 AM 73.0 °F - 69.1 °F 87% 30.09 in - NE 4.6 mph - N/A   Unknown
1:55 AM 71.6 °F - 69.8 °F 94% 30.10 in 10.0 mi NE 3.5 mph - N/A   Clear
2:15 AM 71.6 °F - 69.8 °F 94% 30.10 in 10.0 mi NE 3.5 mph - N/A   Clear
2:35 AM 71.6 °F - 69.8 °F 94% 30.09 in 10.0 mi ENE 3.5 mph - N/A   Clear
2:53 AM 73.0 °F - 70.0 °F 90% 30.07 in - NNE 4.6 mph - N/A   Unknown
2:55 AM 69.8 °F - 69.8 °F 100% 30.09 in 7.0 mi NE 3.5 mph - N/A   Scattered Clouds
3:15 AM 71.6 °F - 69.8 °F 94% 30.09 in 7.0 mi Calm Calm - N/A   Clear
3:35 AM 69.8 °F - 69.8 °F 100% 30.08 in 7.0 mi ENE 3.5 mph - N/A   Clear
3:53 AM 72.0 °F - 70.0 °F 93% 30.06 in - ENE 3.5 mph - N/A   Unknown
3:55 AM 69.8 °F - 69.8 °F 100% 30.08 in 7.0 mi Calm Calm - N/A   Clear
4:15 AM 69.8 °F - 69.8 °F 100% 30.08 in 7.0 mi Calm Calm - N/A   Clear
4:35 AM 69.8 °F - 69.8 °F 100% 30.08 in 7.0 mi North 3.5 mph - N/A   Mostly Cloudy
4:53 AM 73.0 °F - 70.0 °F 90% 30.06 in - NE 3.5 mph - N/A   Unknown
4:55 AM 69.8 °F - 69.8 °F 100% 30.08 in 7.0 mi NE 3.5 mph - N/A   Overcast
5:15 AM 69.8 °F - 69.8 °F 100% 30.08 in 7.0 mi NE 4.6 mph - N/A   Overcast
5:35 AM 69.8 °F - 69.8 °F 100% 30.08 in 7.0 mi NE 3.5 mph - N/A   Overcast
5:53 AM 73.0 °F - 70.0 °F 90% 30.07 in - ENE 4.6 mph - N/A   Unknown
5:55 AM 69.8 °F - 69.8 °F 100% 30.08 in 4.0 mi ENE 4.6 mph - N/A   Overcast
6:15 AM 69.8 °F - 69.8 °F 100% 30.09 in 2.5 mi NE 3.5 mph - N/A   Overcast
6:35 AM 69.8 °F - 69.8 °F 100% 30.10 in 1.2 mi ENE 4.6 mph - N/A   Overcast
6:53 AM 72.0 °F - 70.0 °F 93% 30.09 in - Variable 5.8 mph - 0.01 in   Unknown
6:55 AM 71.6 °F - 69.8 °F 94% 30.10 in 1.0 mi ENE 3.5 mph - N/A   Overcast
7:15 AM 71.6 °F - 69.8 °F 94% 30.10 in 1.0 mi East 4.6 mph - N/A   Overcast
7:35 AM 71.6 °F - 69.8 °F 94% 30.10 in 2.5 mi ENE 3.5 mph - N/A   Overcast
7:53 AM 73.0 °F - 71.1 °F 93% 30.10 in - Calm Calm - N/A   Unknown
7:55 AM 71.6 °F - 69.8 °F 94% 30.11 in 3.0 mi East 4.6 mph - N/A   Overcast
8:15 AM 71.6 °F - 69.8 °F 94% 30.12 in 3.0 mi Calm Calm - N/A   Overcast
8:35 AM 71.6 °F - 71.6 °F 100% 30.13 in 4.0 mi NE 3.5 mph - N/A   Overcast
8:53 AM 75.9 °F - 72.0 °F 87% 30.12 in - ENE 3.5 mph - N/A   Unknown
8:55 AM 73.4 °F - 71.6 °F 94% 30.13 in 5.0 mi ENE 4.6 mph - N/A   Overcast
9:15 AM 73.4 °F - 71.6 °F 94% 30.13 in 7.0 mi East 5.8 mph - N/A   Overcast
9:35 AM 73.4 °F - 71.6 °F 94% 30.14 in 7.0 mi NE 5.8 mph - N/A   Overcast
9:53 AM 78.1 °F - 72.0 °F 81% 30.13 in - NNE 5.8 mph - N/A   Unknown
9:55 AM 75.2 °F - 71.6 °F 89% 30.15 in 10.0 mi NE 4.6 mph - N/A   Overcast
10:15 AM 77.0 °F - 71.6 °F 83% 30.15 in 10.0 mi NE 5.8 mph - N/A   Overcast
10:35 AM 77.0 °F - 71.6 °F 83% 30.15 in 10.0 mi NNE 6.9 mph - N/A   Overcast
10:53 AM 81.0 °F 85.2 °F 72.0 °F 74% 30.14 in - NNE 5.8 mph - 0.01 in   Unknown
10:55 AM 78.8 °F - 71.6 °F 78% 30.15 in 10.0 mi NE 6.9 mph - N/A   Overcast
11:15 AM 78.8 °F - 71.6 °F 78% 30.15 in 10.0 mi NE 6.9 mph - N/A   Overcast
11:35 AM 80.6 °F 84.6 °F 71.6 °F 74% 30.15 in 10.0 mi NE 4.6 mph - N/A   Overcast
11:53 AM 82.0 °F 86.7 °F 72.0 °F 71% 30.14 in - NNE 5.8 mph - N/A   Unknown
11:55 AM 78.8 °F - 71.6 °F 78% 30.15 in 10.0 mi ENE 5.8 mph - N/A   Overcast
12:15 PM 80.6 °F 84.6 °F 71.6 °F 74% 30.15 in 10.0 mi ENE 8.1 mph - N/A   Mostly Cloudy
12:35 PM 80.6 °F 84.6 °F 71.6 °F 74% 30.15 in 10.0 mi NNE 6.9 mph - N/A   Mostly Cloudy
12:53 PM 82.0 °F 86.7 °F 72.0 °F 71% 30.13 in - NNE 6.9 mph 16.1 mph N/A   Unknown
12:55 PM 78.8 °F - 71.6 °F 78% 30.14 in 10.0 mi NNE 6.9 mph - N/A   Overcast
1:15 PM 82.4 °F 86.3 °F 69.8 °F 66% 30.13 in 10.0 mi ENE 5.8 mph - N/A   Scattered Clouds
1:35 PM 82.4 °F 86.3 °F 69.8 °F 66% 30.12 in 10.0 mi Calm Calm - N/A   Clear
1:53 PM 84.9 °F 90.1 °F 71.1 °F 63% 30.10 in - Variable 3.5 mph - N/A   Unknown
1:55 PM 82.4 °F 86.3 °F 69.8 °F 66% 30.12 in 10.0 mi East 5.8 mph - N/A   Clear
2:15 PM 82.4 °F 86.3 °F 69.8 °F 66% 30.12 in 10.0 mi SE 6.9 mph - N/A Thunderstorm Mostly Cloudy
2:35 PM 82.4 °F 87.2 °F 71.6 °F 70% 30.12 in 10.0 mi SE 5.8 mph - N/A   Mostly Cloudy
2:53 PM 87.1 °F 94.5 °F 73.0 °F 63% 30.10 in - SE 8.1 mph - N/A   Unknown
2:55 PM 84.2 °F 89.6 °F 71.6 °F 66% 30.11 in 10.0 mi SE 6.9 mph - N/A   Scattered Clouds
3:15 PM 82.4 °F 86.3 °F 69.8 °F 66% 30.11 in 10.0 mi SE 4.6 mph - N/A   Scattered Clouds
3:35 PM 86.0 °F 90.4 °F 69.8 °F 58% 30.10 in 10.0 mi SE 3.5 mph - N/A   Clear
3:53 PM 86.0 °F 89.4 °F 68.0 °F 55% 30.09 in - SSE 3.5 mph - N/A   Unknown
3:55 PM 84.2 °F 86.6 °F 66.2 °F 55% 30.10 in 10.0 mi SE 3.5 mph - N/A Thunderstorm Thunderstorm
4:15 PM 80.6 °F 83.9 °F 69.8 °F 70% 30.10 in 10.0 mi East 4.6 mph - N/A Thunderstorm Mostly Cloudy
4:35 PM 78.8 °F - 69.8 °F 74% 30.10 in 10.0 mi SSW 8.1 mph - N/A Rain , Thunderstorm Light Thunderstorms and Rain
4:53 PM 80.1 °F 82.3 °F 66.9 °F 64% 30.08 in - South 3.5 mph - N/A   Unknown
4:55 PM 78.8 °F - 66.2 °F 65% 30.10 in 10.0 mi South 3.5 mph - N/A   Light Drizzle
5:15 PM 80.6 °F 83.2 °F 68.0 °F 65% 30.08 in 10.0 mi SSE 5.8 mph - N/A Thunderstorm Scattered Clouds
5:35 PM 82.4 °F 85.4 °F 68.0 °F 62% 30.08 in 10.0 mi Calm Calm - N/A Thunderstorm Clear
5:53 PM 84.0 °F 88.4 °F 70.0 °F 63% 30.08 in - NE 8.1 mph - N/A   Unknown
5:55 PM 82.4 °F 86.3 °F 69.8 °F 66% 30.09 in 10.0 mi NE 9.2 mph - N/A   Clear
6:15 PM 78.8 °F - 69.8 °F 74% 30.10 in 10.0 mi NNE 4.6 mph - N/A   Clear
6:35 PM 78.8 °F - 69.8 °F 74% 30.10 in 10.0 mi North 5.8 mph - N/A   Scattered Clouds
6:53 PM 81.0 °F 84.4 °F 70.0 °F 69% 30.09 in - North 4.6 mph - N/A   Unknown
6:55 PM 78.8 °F - 69.8 °F 74% 30.10 in 10.0 mi NNE 3.5 mph - N/A   Overcast
7:15 PM 78.8 °F - 69.8 °F 74% 30.11 in 10.0 mi ENE 6.9 mph - N/A Thunderstorm Overcast
7:35 PM 77.0 °F - 69.8 °F 78% 30.12 in 10.0 mi East 6.9 mph 19.6 mph N/A   Overcast
7:53 PM 77.0 °F - 69.1 °F 76% 30.10 in - East 4.6 mph - N/A   Unknown
7:55 PM 75.2 °F - 68.0 °F 78% 30.11 in 10.0 mi ESE 4.6 mph - N/A   Overcast
8:15 PM 73.4 °F - 68.0 °F 83% 30.13 in 10.0 mi ENE 3.5 mph - N/A   Overcast
8:35 PM 73.4 °F - 68.0 °F 83% 30.13 in 7.0 mi ENE 5.8 mph - N/A   Overcast
8:53 PM 73.9 °F - 66.9 °F 79% 30.12 in - NE 4.6 mph - N/A   Unknown
8:55 PM 71.6 °F - 66.2 °F 83% 30.13 in 7.0 mi NE 3.5 mph - N/A   Overcast
9:15 PM 71.6 °F - 68.0 °F 88% 30.13 in 10.0 mi North 4.6 mph - N/A   Scattered Clouds
9:35 PM 71.6 °F - 68.0 °F 88% 30.13 in 10.0 mi NNE 4.6 mph - N/A   Clear
9:53 PM 73.0 °F - 68.0 °F 84% 30.11 in - NE 3.5 mph - N/A   Unknown
9:55 PM 71.6 °F - 68.0 °F 88% 30.12 in 10.0 mi NE 3.5 mph - N/A   Clear
10:15 PM 71.6 °F - 68.0 °F 88% 30.11 in 10.0 mi NE 3.5 mph - N/A   Clear
10:35 PM 71.6 °F - 68.0 °F 88% 30.11 in 10.0 mi Calm Calm - N/A   Clear
10:53 PM 72.0 °F - 68.0 °F 87% 30.10 in - Calm Calm - N/A   Unknown
10:55 PM 69.8 °F - 68.0 °F 94% 30.11 in 10.0 mi Calm Calm - N/A   Clear
11:15 PM 69.8 °F - 68.0 °F 94% 30.12 in 10.0 mi NE 4.6 mph - N/A   Clear
11:35 PM 69.8 °F - 68.0 °F 94% 30.12 in 10.0 mi Calm Calm - N/A   Clear
11:53 PM 72.0 °F - 68.0 °F 87% 30.11 in - Calm Calm - N/A   Unknown
11:55 PM 69.8 °F - 68.0 °F 94% 30.12 in 10.0 mi NE 3.5 mph - N/A   Clear